Location: USNO
(38.9242°N, 77.0663°W)
Time: 20:32:22
(UTC-04:00)

Tiangong 2 - Pass Details

Date: 14 October 2017
Orbit: 388 x 391 km, 42.8° (Epoch: 23 October)

Event Time Altitude Azimuth Distance (km) Brightness Sun altitude
Exits shadow 06:30:48 13° 296° (WNW) 1,267 3.1 -9.7°
Maximum altitude 06:33:28 41° 6° (N) 581 2.0 -9.2°
Drops below altitude 10° 06:36:31 10° 78° (ENE) 1,421 5.4 -8.6°
Sets 06:38:40 0° 86° (E) 2,276 7.2 -8.2°
